DW3039 Karjalohja FI current weather conditions

sailwx.info

Wind from 025 at 5 knots gusting 10

Air temperature 13.3° C
Dewpoint 12.9° C

Last reported at 2016-Aug-29 11:48 UTC.
Time now 2016-Aug-29 13:02 UTC

Location: N 60°16' E 023°41'.
View on Google Maps.

See reports from other nearby stations

  
Tides and Currents Weather Stations Pressure Air Temp Water Temp Dewpoint Dewpoint Depression Visibility Wind Speed Wind Dir Waves Ship Positions
date/time (UTC)wind fromknots sea level pressurealtimeterstation pressurevisibilityair tempwater tempwave heightnotes
2016-Aug-29 11:48 025 5 gusting 10 13.3
2016-Aug-29 11:38 022 5 gusting 11 13.3
2016-Aug-29 11:28 033 5 gusting 12 13.3
2016-Aug-29 11:18 027 6 gusting 12 13.3
2016-Aug-29 11:08 037 6 gusting 11 13.3
2016-Aug-29 10:57 034 5 gusting 9 13.3
2016-Aug-29 10:47 031 6 gusting 10 13.9
2016-Aug-29 10:37 041 4 gusting 8 13.9
2016-Aug-29 10:27 014 2 gusting 7 13.9
2016-Aug-29 10:17 101 2 gusting 9 14.4
2016-Aug-29 10:07 011 3 gusting 6 14.4
2016-Aug-29 09:57 029 4 gusting 8 14.4
2016-Aug-29 09:47 055 2 gusting 8 14.4
2016-Aug-29 09:37 042 2 gusting 10 14.4
2016-Aug-29 09:26 049 2 gusting 10 14.4
2016-Aug-29 09:16 039 5 gusting 13 14.4
2016-Aug-29 09:06 049 4 gusting 8 14.4
2016-Aug-29 08:55 077 2 gusting 11 14.4
2016-Aug-29 08:45 052 1 gusting 20 14.4
2016-Aug-29 08:35 034 3 gusting 10 14.4
2016-Aug-29 08:25 026 6 gusting 11 13.9
2016-Aug-29 08:15 103 1 gusting 7 13.9
2016-Aug-29 08:05 033 4 gusting 9 13.9
2016-Aug-29 07:55 050 3 gusting 13 13.9
2016-Aug-29 07:45 061 5 gusting 10 13.9
2016-Aug-29 07:35 043 3 gusting 11 13.9
2016-Aug-29 07:25 042 5 gusting 11 13.9
2016-Aug-29 07:15 029 4 gusting 10 13.9
2016-Aug-29 07:05 032 5 gusting 9 13.9
2016-Aug-29 06:55 062 3 gusting 8 13.9
2016-Aug-29 06:45 034 2 gusting 8 13.9
2016-Aug-29 06:35 057 2 gusting 10 13.9
2016-Aug-29 06:25 037 4 gusting 9 13.9
2016-Aug-29 06:14 029 5 gusting 10 13.3
2016-Aug-29 05:54 068 1 gusting 6 13.3
2016-Aug-29 05:44 117 3 gusting 8 13.3
2016-Aug-29 05:34 032 0 gusting 4 13.3
2016-Aug-29 05:23 118 13.3
2016-Aug-29 05:12 030 0 gusting 4 13.3
2016-Aug-29 05:02 048 13.3
2016-Aug-29 04:52 035 0 gusting 4 13.3
2016-Aug-29 04:42 042 13.3
2016-Aug-29 04:32 042 13.3
2016-Aug-29 04:22 042 13.3
2016-Aug-29 04:12 042 3 gusting 5 13.3
2016-Aug-29 04:02 048 0 gusting 3 13.3
2016-Aug-29 03:50 048 13.3
2016-Aug-29 03:40 019 13.3
2016-Aug-29 03:30 019 12.8
2016-Aug-29 03:20 028 12.8
2016-Aug-29 03:10 028 12.8
2016-Aug-29 02:59 028 12.8
2016-Aug-29 02:49 028 12.8
2016-Aug-29 02:39 028 12.8
2016-Aug-29 02:29 039 12.8
2016-Aug-29 02:19 041 12.8
2016-Aug-29 02:09 042 12.8
2016-Aug-29 01:59 042 12.8
2016-Aug-29 01:49 042 12.8
2016-Aug-29 01:39 042 12.8
2016-Aug-29 01:29 042 12.8
2016-Aug-29 01:19 042 12.8
2016-Aug-29 01:09 042 12.8
2016-Aug-29 00:57 042 12.8
2016-Aug-29 00:47 042 12.8
2016-Aug-29 00:37 042 12.8
2016-Aug-29 00:27 042 12.8
2016-Aug-29 00:17 042 12.8
2016-Aug-29 00:06 042 12.8
2016-Aug-28 23:56 042 12.8
2016-Aug-28 23:46 059 12.8
2016-Aug-28 23:36 059 12.8
2016-Aug-28 23:26 059 12.8
2016-Aug-28 23:16 040 12.8
2016-Aug-28 23:05 124 12.8
2016-Aug-28 22:55 124 12.8
2016-Aug-28 22:45 232 12.8
2016-Aug-28 22:35 232 12.2
2016-Aug-28 22:25 232 12.2
2016-Aug-28 22:15 232 12.2
2016-Aug-28 22:05 232 12.2
2016-Aug-28 21:55 232 12.2
2016-Aug-28 21:45 232 12.2
2016-Aug-28 21:35 232 12.8
2016-Aug-28 21:24 232 12.8
2016-Aug-28 21:14 232 12.8
2016-Aug-28 21:04 232 12.8
2016-Aug-28 20:54 232 12.8
2016-Aug-28 20:44 232 12.8
2016-Aug-28 20:33 232 12.8
2016-Aug-28 20:23 232 13.3
2016-Aug-28 20:13 232 13.3
2016-Aug-28 20:03 232 13.3
2016-Aug-28 19:52 232 13.3
2016-Aug-28 19:42 232 13.3
2016-Aug-28 19:32 232 13.3
2016-Aug-28 19:22 232 13.3
2016-Aug-28 19:12 232 13.3
2016-Aug-28 19:02 232 13.3
2016-Aug-28 18:52 232 13.9
2016-Aug-28 18:42 232 13.9